Kindersley Airport, Saskatchewan

Past 24 Hour Conditions

Date / Time
(CST)
Conditions Temp
(°F)
Humidity
(%)
Dew Point
(°F)
Wind
(mph)
Pressure
(inches)
Visibility
(miles)
22 October 2014
17:00 Mostly Cloudy 55 59 41 SSW 8 29.8 15
16:00 Mainly Sunny 61   43 38 S 6 29.7 15
15:00 Mainly Sunny 59 42 36 SSW 2 29.8 15
14:00 Mainly Sunny 59 47 39 WSW 10 29.8 15
13:00 Mainly Sunny 57 53 40 WSW 7 29.8 15
12:00 Mainly Sunny 53 68 42 WSW 8 29.8 15
11:00 Mainly Sunny 48 76 40 WSW 6 29.8 15
10:00 Partly Cloudy 42 87 38 N 2 29.8 15
9:00 Mostly Cloudy 41   90 38 WNW 3 29.8 15
8:00 Mostly Cloudy 42 89 39 NW 3 29.8 15
7:00 Cloudy 43 91 41 W 6 29.8 15
6:00 Cloudy 44 90 41 WNW 5 29.8 15
5:00 Cloudy 44 90 42 WNW 6 29.8 15
4:00 Light Rainshower 45 89 42 WNW 3 29.7 15
3:00 Cloudy 45 90 43 WNW 5 29.7 15
2:00 Cloudy 46 92 44 WNW 6 29.7 15
1:00 Light Drizzle 47 90 44 NNW 8 29.7 15
00:00 Light Rainshower 47 90 44 NNW 11 29.7 15
21 October 2014
23:00 Light Rainshower 48 88 45 NNW 10 29.7 12
22:00 Light Rainshower 49 89 46 NW 10 29.7 12
21:00 Cloudy 52 70 43 NW 12 29.7 15
20:00 Cloudy 52 69 42 NNW 13 gust 19 29.7 15
19:00 Cloudy 53 64 41 NW 11 29.6 15
18:00 Cloudy 55 61 41 NW 9 29.6 15
17:00 Mostly Cloudy 58 53 41 W 9 29.6 15
N/A Not available
↑ Highest temperature
↓ Lowest temperature

If you require additional historical weather information, please visit Climate Data Online.

Date modified: